• In Lithuania
  • List of Countries
  • For 7 days
  • Water Temperature
  • Satellite Maps
  • Weather Map
  • Weather Widgets
  • user-avatar
    Login

    Hourly Weather Kanye

    Today, 20 June, Wednesday

    Time Temperature Precipitation Wind Pressure Humidity
    00:00 +13°C° 0 mm 1 mps 652 mmHg 25%
    01:00 +13°C° 0 mm 1 mps 652 mmHg 26%
    02:00 +12°C° 0 mm 1 mps 652 mmHg 26%
    03:00 +12°C° 0 mm 1 mps 652 mmHg 27%
    04:00 +12°C° 0 mm 1 mps 652 mmHg 28%
    05:00 +11°C° 0 mm 1 mps 652 mmHg 28%
    06:00 +12°C° 0 mm 2 mps 653 mmHg 27%
    07:00 +13°C° 0 mm 2 mps 653 mmHg 27%
    08:00 +15°C° 0 mm 2 mps 655 mmHg 24%
    09:00 +18°C° 0 mm 2 mps 655 mmHg 21%
    10:00 +20°C° 0 mm 3 mps 656 mmHg 17%
    11:00 +24°C° 0 mm 3 mps 657 mmHg 13%
    12:00 +25°C° 0 mm 3 mps 656 mmHg 13%
    13:00 +26°C° 0 mm 3 mps 656 mmHg 12%
    14:00 +26°C° 0 mm 3 mps 656 mmHg 11%
    15:00 +25°C° 0 mm 3 mps 656 mmHg 12%
    16:00 +24°C° 0 mm 2 mps 655 mmHg 13%
    17:00 +24°C° 0 mm 2 mps 655 mmHg 15%
    18:00 +21°C° 0 mm 2 mps 654 mmHg 16%
    19:00 +19°C° 0 mm 2 mps 654 mmHg 17%
    20:00 +17°C° 0 mm 2 mps 654 mmHg 19%
    21:00 +16°C° 0 mm 2 mps 654 mmHg 19%
    22:00 +16°C° 0 mm 2 mps 654 mmHg 19%
    23:00 +15°C° 0 mm 2 mps 655 mmHg 19%

    Tomorrow, 21 June, Thursday

    Time Temperature Precipitation Wind Pressure Humidity
    00:00 +15°C° 0 mm 2 mps 655 mmHg 20%
    01:00 +13°C° 0 mm 3 mps 655 mmHg 20%
    02:00 +13°C° 0 mm 3 mps 655 mmHg 21%
    03:00 +12°C° 0 mm 3 mps 655 mmHg 25%
    04:00 +11°C° 0 mm 3 mps 655 mmHg 28%
    05:00 +10°C° 0 mm 3 mps 655 mmHg 32%
    06:00 +10°C° 0 mm 3 mps 655 mmHg 39%
    07:00 +11°C° 0 mm 4 mps 656 mmHg 46%
    08:00 +11°C° 0 mm 4 mps 656 mmHg 52%
    09:00 +13°C° 0 mm 4 mps 657 mmHg 50%
    10:00 +15°C° 0 mm 5 mps 657 mmHg 47%
    11:00 +19°C° 0 mm 6 mps 658 mmHg 45%
    12:00 +20°C° 0 mm 5 mps 658 mmHg 39%
    13:00 +21°C° 0 mm 5 mps 658 mmHg 34%
    14:00 +23°C° 0 mm 4 mps 657 mmHg 29%
    15:00 +22°C° 0 mm 4 mps 657 mmHg 29%
    16:00 +22°C° 0 mm 3 mps 657 mmHg 30%
    17:00 +21°C° 0 mm 2 mps 656 mmHg 31%
    18:00 +19°C° 0 mm 2 mps 656 mmHg 36%
    19:00 +17°C° 0 mm 2 mps 656 mmHg 41%
    20:00 +15°C° 0 mm 2 mps 656 mmHg 47%
    21:00 +15°C° 0 mm 2 mps 656 mmHg 50%
    22:00 +14°C° 0 mm 2 mps 656 mmHg 53%
    23:00 +14°C° 0 mm 2 mps 656 mmHg 56%

    Day after tomorrow, 22 June, Friday

    Time Temperature Precipitation Wind Pressure Humidity
    00:00 +13°C° 0 mm 2 mps 656 mmHg 58%
    01:00 +13°C° 0 mm 2 mps 656 mmHg 61%
    02:00 +12°C° 0 mm 2 mps 656 mmHg 63%
    03:00 +12°C° 0 mm 2 mps 655 mmHg 64%
    04:00 +12°C° 0 mm 2 mps 655 mmHg 65%
    05:00 +10°C° 0 mm 2 mps 655 mmHg 65%
    06:00 +12°C° 0 mm 2 mps 655 mmHg 64%
    07:00 +12°C° 0 mm 2 mps 656 mmHg 62%
    08:00 +12°C° 0 mm 2 mps 656 mmHg 61%
    09:00 +15°C° 0 mm 2 mps 657 mmHg 52%
    10:00 +18°C° 0 mm 3 mps 658 mmHg 43%
    11:00 +21°C° 0 mm 3 mps 658 mmHg 34%
    12:00 +21°C° 0 mm 3 mps 658 mmHg 30%
    13:00 +23°C° 0 mm 2 mps 658 mmHg 25%
    14:00 +24°C° 0 mm 2 mps 657 mmHg 21%
    15:00 +24°C° 0 mm 2 mps 657 mmHg 22%
    16:00 +23°C° 0 mm 2 mps 656 mmHg 22%
    17:00 +21°C° 0 mm 2 mps 656 mmHg 23%
    18:00 +19°C° 0 mm 2 mps 656 mmHg 26%
    19:00 +18°C° 0 mm 2 mps 655 mmHg 30%
    20:00 +16°C° 0 mm 2 mps 655 mmHg 33%
    21:00 +15°C° 0 mm 2 mps 655 mmHg 34%
    22:00 +15°C° 0 mm 2 mps 655 mmHg 36%
    23:00 +14°C° 0 mm 1 mps 655 mmHg 37%

    23 June, Saturday

    Time Temperature Precipitation Wind Pressure Humidity
    00:00 +14°C° 0 mm 1 mps 655 mmHg 39%
    01:00 +13°C° 0 mm 1 mps 655 mmHg 41%
    02:00 +12°C° 0 mm 1 mps 655 mmHg 43%
    03:00 +12°C° 0 mm 1 mps 654 mmHg 44%
    04:00 +10°C° 0 mm 0 mps 654 mmHg 46%
    05:00 +10°C° 0 mm 0 mps 654 mmHg 48%
    06:00 +11°C° 0 mm 0 mps 654 mmHg 47%
    07:00 +12°C° 0 mm 1 mps 655 mmHg 45%
    08:00 +13°C° 0 mm 1 mps 656 mmHg 44%
    09:00 +16°C° 0 mm 1 mps 656 mmHg 38%
    10:00 +18°C° 0 mm 2 mps 657 mmHg 32%
    11:00 +21°C° 0 mm 3 mps 657 mmHg 26%
    12:00 +21°C° 0 mm 2 mps 657 mmHg 24%
    13:00 +23°C° 0 mm 2 mps 656 mmHg 21%
    14:00 +24°C° 0 mm 2 mps 656 mmHg 19%
    15:00 +23°C° 0 mm 2 mps 655 mmHg 20%
    16:00 +23°C° 0 mm 1 mps 655 mmHg 21%
    17:00 +22°C° 0 mm 1 mps 655 mmHg 22%
    18:00 +20°C° 0 mm 1 mps 655 mmHg 24%
    19:00 +17°C° 0 mm 2 mps 654 mmHg 26%
    20:00 +16°C° 0 mm 2 mps 654 mmHg 29%
    21:00 +15°C° 0 mm 2 mps 654 mmHg 30%
    22:00 +14°C° 0 mm 2 mps 654 mmHg 31%
    23:00 +14°C° 0 mm 1 mps 654 mmHg 32%

    24 June, Sunday

    Time Temperature Precipitation Wind Pressure Humidity
    00:00 +13°C° 0 mm 1 mps 654 mmHg 33%
    01:00 +13°C° 0 mm 1 mps 654 mmHg 35%
    02:00 +12°C° 0 mm 1 mps 653 mmHg 36%
    03:00 +12°C° 0 mm 1 mps 653 mmHg 39%
    04:00 +11°C° 0 mm 1 mps 653 mmHg 41%
    05:00 +11°C° 0 mm 1 mps 653 mmHg 44%
    06:00 +11°C° 0 mm 1 mps 654 mmHg 43%
    07:00 +12°C° 0 mm 1 mps 654 mmHg 43%
    08:00 +11°C° 0 mm 0 mps 655 mmHg 42%
    09:00 +14°C° 0 mm 0 mps 656 mmHg 36%
    10:00 +19°C° 0 mm 1 mps 656 mmHg 30%
    11:00 +22°C° 0 mm 1 mps 657 mmHg 23%
    12:00 +23°C° 0 mm 1 mps 657 mmHg 21%
    13:00 +23°C° 0 mm 1 mps 656 mmHg 20%
    14:00 +24°C° 0 mm 1 mps 656 mmHg 18%
    15:00 +24°C° 0 mm 1 mps 655 mmHg 19%
    16:00 +23°C° 0 mm 1 mps 655 mmHg 20%
    17:00 +22°C° 0 mm 1 mps 655 mmHg 21%
    18:00 +19°C° 0 mm 2 mps 655 mmHg 23%
    19:00 +17°C° 0 mm 2 mps 654 mmHg 26%
    20:00 +15°C° 0 mm 2 mps 654 mmHg 28%
    21:00 +15°C° 0 mm 2 mps 654 mmHg 30%
    22:00 +14°C° 0 mm 2 mps 654 mmHg 31%
    23:00 +14°C° 0 mm 2 mps 654 mmHg 32%

    25 June, Monday

    Time Temperature Precipitation Wind Pressure Humidity
    00:00 +13°C° 0 mm 1 mps 654 mmHg 34%
    01:00 +13°C° 0 mm 1 mps 654 mmHg 36%
    02:00 +12°C° 0 mm 1 mps 653 mmHg 37%
    03:00 +12°C° 0 mm 1 mps 653 mmHg 39%
    04:00 +12°C° 0 mm 1 mps 653 mmHg 40%
    05:00 +11°C° 0 mm 1 mps 653 mmHg 41%
    06:00 +12°C° 0 mm 2 mps 653 mmHg 41%
    07:00 +12°C° 0 mm 2 mps 654 mmHg 41%
    08:00 +12°C° 0 mm 2 mps 654 mmHg 41%
    09:00 +14°C° 0 mm 3 mps 655 mmHg 37%
    10:00 +18°C° 0 mm 4 mps 655 mmHg 33%
    11:00 +20°C° 0 mm 5 mps 656 mmHg 29%
    12:00 +21°C° 0 mm 4 mps 655 mmHg 27%
    13:00 +22°C° 0 mm 4 mps 655 mmHg 25%
    14:00 +22°C° 0 mm 4 mps 654 mmHg 23%
    15:00 +22°C° 0 mm 4 mps 654 mmHg 23%
    16:00 +21°C° 0 mm 3 mps 654 mmHg 23%
    17:00 +21°C° 0 mm 3 mps 653 mmHg 24%
    18:00 +19°C° 0 mm 2 mps 653 mmHg 27%
    19:00 +17°C° 0 mm 2 mps 653 mmHg 30%
    20:00 +15°C° 0 mm 2 mps 653 mmHg 33%
    21:00 +14°C° 0 mm 1 mps 653 mmHg 34%
    22:00 +13°C° 0 mm 1 mps 653 mmHg 35%
    23:00 +13°C° 0 mm 1 mps 652 mmHg 36%
    Show more